Location: General Nathan Twining Observatory
(34.5931°N, 106.8201°W)
Time: 03:45:18
(UTC-06:00)

ADEOS II - Pass Details

Date: 21 June 2018
Orbit: 799 x 802 km, 98.4° (Epoch: 23 September)

Event Time Altitude Azimuth Distance (km) Brightness Sun altitude
Rises 02:53:12 0° 37° (NE) 3,315 6.5 -26.9°
Reaches altitude 10° 02:56:54 10° 64° (ENE) 2,380 5.2 -26.6°
Maximum altitude 02:59:22 13° 92° (E) 2,149 4.6 -26.3°
Drops below altitude 10° 03:01:49 10° 120° (ESE) 2,373 4.5 -26.1°
Enters shadow 03:02:36 - 128° (SE) 2,526 4.6 -26.0°
